Weather History for KLAF - February, 2014

Change the Weather History Date:

Sunday, February 23, 2014

  Actual Average Record
Temperature  
Mean Temperature 25 °F 33 °F  
Max Temperature 29 °F 41 °F 66 °F (1984)
Min Temperature 21 °F 25 °F 1 °F (2015)
Degree Days  
Heating Degree Days 40 32  
Month to date heating degree days 1051 809  
Since 1 July heating degree days 4719 4177  
Cooling Degree Days 0 0  
Month to date cooling degree days 0 0  
Year to date cooling degree days 0 0  
Moisture  
Dew Point 20 °F    
Average Humidity 87    
Maximum Humidity 100    
Minimum Humidity 74    
Precipitation  
Precipitation 0.01 in 0.07 in 1.51 in (1985)
Month to date precipitation 2.43 1.38  
Year to date precipitation 3.34 3.24  
Sea Level Pressure  
Sea Level Pressure 30.18 in    
Wind  
Wind Speed 8 mph (WNW)    
Max Wind Speed 17 mph    
Max Gust Speed 22 mph    
Visibility 9 miles    
Events Snow    
T = Trace of Precipitation, MM = Missing Value Source: NWS Daily Summary

Daily Weather History Graph

Daily Weather History Graph

Search for Another Location

Airport or City:

Trip Planner

Search our weather history database for the weather conditions in past years. The results will help you decide how hot, cold, wet, or windy it might be!

Date:

Astronomy

Feb. 23, 2014 Rise Set
Actual Time 7:30 AM EST 6:32 PM EST
Civil Twilight 7:02 AM EST 7:00 PM EST
Nautical Twilight 6:31 AM EST 7:31 PM EST
Astronomical Twilight 5:59 AM EST 8:03 PM EST
Moon 2:28 AM EST (2/23) 12:33 PM EST (2/23)
Length of Visible Light 11h 57m
Length of Day
11h 02m
Last Quarter, 39% of the Moon is Illuminated
Feb 23
Last Quarter
Mar 1
New
Mar 8
First Quarter
Mar 16
Full
Mar 23
Last Quarter

Hourly Weather History & Observations

Time (EST) Temp. Windchill Dew Point Humidity Pressure Visibility Wind Dir Wind Speed Gust Speed Precip Events Conditions
12:29 AM 28.0 °F 24.2 °F - N/A% 30.06 in 2.0 mi SE 3.5 mph - 0.02 in Snow Light Snow
12:39 AM 28.0 °F 22.8 °F - N/A% 30.06 in 5.0 mi South 4.6 mph - 0.02 in Snow Light Snow
12:54 AM 28.0 °F 24.2 °F - N/A% 30.07 in 7.0 mi SSE 3.5 mph - 0.02 in Snow Light Snow
1:54 AM 28.0 °F - - N/A% 30.07 in 10.0 mi Calm Calm - 0.00 in   Overcast
2:54 AM 26.1 °F 20.5 °F - N/A% 30.08 in 10.0 mi WNW 4.6 mph - N/A   Overcast
3:54 AM 25.0 °F 19.3 °F 25.0 °F 100% 30.09 in 10.0 mi WNW 4.6 mph - N/A   Scattered Clouds
4:54 AM 24.1 °F 18.2 °F 23.0 °F 96% 30.10 in 10.0 mi WNW 4.6 mph - N/A   Clear
5:54 AM 23.0 °F 14.7 °F 21.9 °F 96% 30.15 in 10.0 mi NW 6.9 mph - N/A   Clear
6:54 AM 23.0 °F 13.9 °F 21.9 °F 96% 30.15 in 10.0 mi NW 8.1 mph - N/A   Overcast
7:54 AM 23.0 °F 13.9 °F 21.0 °F 92% 30.19 in 10.0 mi WNW 8.1 mph - N/A   Overcast
8:54 AM 23.0 °F 14.7 °F 21.9 °F 96% 30.21 in 10.0 mi NW 6.9 mph - N/A   Overcast
9:54 AM 23.0 °F 15.8 °F 21.9 °F 96% 30.21 in 10.0 mi NW 5.8 mph - N/A   Partly Cloudy
10:54 AM 24.1 °F 13.7 °F 23.0 °F 96% 30.22 in 10.0 mi WNW 10.4 mph - N/A   Clear
11:54 AM 24.1 °F 15.2 °F 21.9 °F 91% 30.22 in 10.0 mi NW 8.1 mph - N/A   Scattered Clouds
12:54 PM 25.0 °F 13.6 °F 21.0 °F 85% 30.23 in 10.0 mi WNW 12.7 mph - N/A   Partly Cloudy
1:54 PM 26.1 °F 14.5 °F 21.0 °F 81% 30.21 in 10.0 mi NNW 13.8 mph - N/A   Clear
2:54 PM 26.1 °F 16.2 °F 21.9 °F 84% 30.22 in 10.0 mi WNW 10.4 mph - N/A   Clear
3:54 PM 27.0 °F 16.1 °F 23.0 °F 85% 30.22 in 10.0 mi WNW 12.7 mph - N/A   Clear
4:54 PM 27.0 °F 16.1 °F 19.9 °F 75% 30.23 in 10.0 mi WNW 12.7 mph - N/A   Partly Cloudy
5:54 PM 26.1 °F 16.8 °F 19.0 °F 75% 30.23 in 10.0 mi NW 9.2 mph - N/A   Clear
6:54 PM 24.1 °F 16.0 °F 17.1 °F 75% 30.24 in 10.0 mi West 6.9 mph - N/A   Clear
7:54 PM 24.1 °F 15.2 °F 17.1 °F 75% 30.25 in 10.0 mi West 8.1 mph - N/A   Clear
8:54 PM 23.0 °F 13.1 °F 17.1 °F 78% 30.26 in 10.0 mi West 9.2 mph - N/A   Clear
9:54 PM 23.0 °F 13.1 °F 17.1 °F 78% 30.26 in 10.0 mi WNW 9.2 mph - N/A   Clear
10:54 PM 21.9 °F 11.7 °F 16.0 °F 78% 30.26 in 10.0 mi WNW 9.2 mph - N/A   Clear
11:54 PM 21.0 °F 9.3 °F 12.9 °F 71% 30.27 in 10.0 mi WNW 11.5 mph - N/A   Clear